• In Belarus
  • List of Countries
  • For 7 days
  • Water Temperature
  • Satellite Maps
  • Weather Map
  • Weather Widgets
  • user-avatar
    Login

    Hourly Weather Caño Grande

    Today, 25 May, Friday

    Time Temperature Precipitation Wind Pressure Humidity
    00:00 +25°C° 0.3 mm 1 mps 702 mmHg 76%
    01:00 +25°C° 0.3 mm 1 mps 702 mmHg 76%
    02:00 +24°C° 0.3 mm 1 mps 702 mmHg 77%
    03:00 +24°C° 0.3 mm 2 mps 702 mmHg 79%
    04:00 +24°C° 0.3 mm 2 mps 701 mmHg 80%
    05:00 +24°C° 0.3 mm 2 mps 702 mmHg 78%
    06:00 +25°C° 0.3 mm 2 mps 702 mmHg 77%
    07:00 +25°C° 0.3 mm 2 mps 703 mmHg 75%
    08:00 +27°C° 0.2 mm 2 mps 703 mmHg 72%
    09:00 +28°C° 0.2 mm 2 mps 703 mmHg 68%
    10:00 +29°C° 0.2 mm 2 mps 703 mmHg 65%
    11:00 +30°C° 0.3 mm 2 mps 702 mmHg 64%
    12:00 +30°C° 0.3 mm 2 mps 702 mmHg 63%
    13:00 +31°C° 0.3 mm 2 mps 701 mmHg 62%
    14:00 +30°C° 0.5 mm 2 mps 701 mmHg 64%
    15:00 +30°C° 0.5 mm 2 mps 701 mmHg 66%
    16:00 +29°C° 0.5 mm 2 mps 700 mmHg 67%
    17:00 +28°C° 0.6 mm 2 mps 701 mmHg 70%
    18:00 +27°C° 0.6 mm 2 mps 701 mmHg 73%
    19:00 +26°C° 0.6 mm 2 mps 701 mmHg 76%
    20:00 +26°C° 0.5 mm 2 mps 701 mmHg 75%
    21:00 +26°C° 0.5 mm 2 mps 701 mmHg 75%
    22:00 +25°C° 0.5 mm 2 mps 702 mmHg 75%
    23:00 +25°C° 0.4 mm 2 mps 702 mmHg 76%

    Tomorrow, 26 May, Saturday

    Time Temperature Precipitation Wind Pressure Humidity
    00:00 +25°C° 0.4 mm 2 mps 701 mmHg 76%
    01:00 +25°C° 0.4 mm 1 mps 701 mmHg 76%
    02:00 +24°C° 0.8 mm 1 mps 701 mmHg 77%
    03:00 +24°C° 0.8 mm 1 mps 701 mmHg 78%
    04:00 +24°C° 0.8 mm 1 mps 701 mmHg 79%
    05:00 +24°C° 0.7 mm 1 mps 701 mmHg 79%
    06:00 +24°C° 0.7 mm 1 mps 701 mmHg 80%
    07:00 +24°C° 0.7 mm 1 mps 702 mmHg 80%
    08:00 +25°C° 0.7 mm 1 mps 702 mmHg 76%
    09:00 +27°C° 0.7 mm 2 mps 703 mmHg 72%
    10:00 +28°C° 0.7 mm 2 mps 703 mmHg 68%
    11:00 +28°C° 0.7 mm 1 mps 702 mmHg 65%
    12:00 +29°C° 0.7 mm 1 mps 702 mmHg 62%
    13:00 +30°C° 0.7 mm 1 mps 701 mmHg 59%
    14:00 +30°C° 0.2 mm 1 mps 701 mmHg 61%
    15:00 +30°C° 0.2 mm 2 mps 700 mmHg 63%
    16:00 +29°C° 0.2 mm 2 mps 700 mmHg 65%
    17:00 +28°C° 0.3 mm 2 mps 700 mmHg 70%
    18:00 +27°C° 0.3 mm 1 mps 700 mmHg 74%
    19:00 +26°C° 0.3 mm 1 mps 701 mmHg 79%
    20:00 +25°C° 0.6 mm 1 mps 701 mmHg 79%
    21:00 +25°C° 0.6 mm 1 mps 701 mmHg 79%
    22:00 +25°C° 0.6 mm 1 mps 702 mmHg 78%
    23:00 +25°C° 0.4 mm 1 mps 702 mmHg 78%

    Day after tomorrow, 27 May, Sunday

    Time Temperature Precipitation Wind Pressure Humidity
    00:00 +24°C° 0.4 mm 1 mps 701 mmHg 77%
    01:00 +24°C° 0.4 mm 2 mps 701 mmHg 76%
    02:00 +24°C° 0.3 mm 2 mps 701 mmHg 77%
    03:00 +24°C° 0.3 mm 2 mps 701 mmHg 77%
    04:00 +23°C° 0.3 mm 2 mps 701 mmHg 78%
    05:00 +24°C° 0.2 mm 1 mps 701 mmHg 75%
    06:00 +25°C° 0.2 mm 1 mps 702 mmHg 73%
    07:00 +25°C° 0.2 mm 1 mps 702 mmHg 71%
    08:00 +27°C° 0.2 mm 1 mps 703 mmHg 68%
    09:00 +28°C° 0.2 mm 2 mps 703 mmHg 66%
    10:00 +29°C° 0.2 mm 2 mps 703 mmHg 63%
    11:00 +29°C° 0.3 mm 2 mps 703 mmHg 62%
    12:00 +30°C° 0.3 mm 2 mps 702 mmHg 62%
    13:00 +30°C° 0.3 mm 2 mps 702 mmHg 61%
    14:00 +30°C° 0.3 mm 2 mps 701 mmHg 61%
    15:00 +30°C° 0.3 mm 2 mps 701 mmHg 60%
    16:00 +30°C° 0.3 mm 2 mps 700 mmHg 59%
    17:00 +29°C° 0.2 mm 2 mps 700 mmHg 65%
    18:00 +27°C° 0.2 mm 2 mps 701 mmHg 70%
    19:00 +26°C° 0.2 mm 2 mps 701 mmHg 75%
    20:00 +26°C° 0.3 mm 2 mps 701 mmHg 74%
    21:00 +26°C° 0.3 mm 2 mps 702 mmHg 73%
    22:00 +25°C° 0.3 mm 2 mps 702 mmHg 73%
    23:00 +25°C° 0.3 mm 2 mps 702 mmHg 73%

    28 May, Monday

    Time Temperature Precipitation Wind Pressure Humidity
    00:00 +25°C° 0.3 mm 2 mps 702 mmHg 73%
    01:00 +25°C° 0.3 mm 2 mps 701 mmHg 74%
    02:00 +24°C° 0.2 mm 2 mps 701 mmHg 74%
    03:00 +24°C° 0.2 mm 2 mps 701 mmHg 75%
    04:00 +24°C° 0.2 mm 2 mps 701 mmHg 76%
    05:00 +24°C° 0.6 mm 2 mps 702 mmHg 75%
    06:00 +25°C° 0.6 mm 1 mps 702 mmHg 75%
    07:00 +25°C° 0.6 mm 1 mps 702 mmHg 74%
    08:00 +26°C° 0.5 mm 1 mps 703 mmHg 71%
    09:00 +27°C° 0.5 mm 1 mps 703 mmHg 68%
    10:00 +28°C° 0.5 mm 2 mps 704 mmHg 66%
    11:00 +29°C° 0.4 mm 2 mps 703 mmHg 65%
    12:00 +29°C° 0.4 mm 2 mps 703 mmHg 64%
    13:00 +30°C° 0.4 mm 2 mps 702 mmHg 63%
    14:00 +30°C° 0.6 mm 1 mps 702 mmHg 64%
    15:00 +29°C° 0.6 mm 1 mps 701 mmHg 64%
    16:00 +29°C° 0.6 mm 1 mps 701 mmHg 65%
    17:00 +28°C° 0.8 mm 1 mps 701 mmHg 69%
    18:00 +27°C° 0.8 mm 1 mps 701 mmHg 72%
    19:00 +26°C° 0.8 mm 1 mps 702 mmHg 76%
    20:00 +26°C° 1.4 mm 1 mps 702 mmHg 76%
    21:00 +26°C° 1.4 mm 1 mps 702 mmHg 76%
    22:00 +25°C° 1.4 mm 1 mps 703 mmHg 77%
    23:00 +25°C° 1 mm 1 mps 702 mmHg 78%

    29 May, Tuesday

    Time Temperature Precipitation Wind Pressure Humidity
    00:00 +24°C° 1 mm 2 mps 702 mmHg 80%
    01:00 +24°C° 1 mm 2 mps 702 mmHg 81%
    02:00 +24°C° 0.9 mm 2 mps 701 mmHg 81%
    03:00 +24°C° 0.9 mm 2 mps 701 mmHg 82%
    04:00 +23°C° 0.9 mm 1 mps 701 mmHg 82%
    05:00 +24°C° 1 mm 1 mps 702 mmHg 80%
    06:00 +24°C° 1 mm 1 mps 702 mmHg 78%
    07:00 +25°C° 1 mm 1 mps 703 mmHg 77%
    08:00 +26°C° 1 mm 1 mps 703 mmHg 74%
    09:00 +27°C° 1 mm 1 mps 703 mmHg 71%
    10:00 +28°C° 1 mm 1 mps 704 mmHg 68%
    11:00 +28°C° 1.2 mm 1 mps 703 mmHg 68%
    12:00 +28°C° 1.2 mm 1 mps 703 mmHg 67%
    13:00 +28°C° 1.2 mm 1 mps 702 mmHg 67%
    14:00 +28°C° 2.5 mm 1 mps 702 mmHg 70%
    15:00 +27°C° 2.5 mm 1 mps 702 mmHg 72%
    16:00 +27°C° 2.5 mm 1 mps 701 mmHg 75%
    17:00 +26°C° 1.4 mm 1 mps 702 mmHg 77%
    18:00 +25°C° 1.4 mm 1 mps 702 mmHg 78%
    19:00 +25°C° 1.4 mm 1 mps 702 mmHg 80%
    20:00 +25°C° 0.7 mm 1 mps 702 mmHg 80%
    21:00 +24°C° 0.7 mm 1 mps 703 mmHg 80%
    22:00 +24°C° 0.7 mm 1 mps 703 mmHg 80%
    23:00 +24°C° 0.5 mm 1 mps 702 mmHg 80%

    30 May, Wednesday

    Time Temperature Precipitation Wind Pressure Humidity
    00:00 +24°C° 0.5 mm 1 mps 702 mmHg 81%
    01:00 +24°C° 0.5 mm 1 mps 701 mmHg 81%
    02:00 +24°C° 0.7 mm 1 mps 701 mmHg 81%
    03:00 +23°C° 0.7 mm 1 mps 701 mmHg 81%
    04:00 +23°C° 0.7 mm 1 mps 701 mmHg 81%
    05:00 +24°C° 0.7 mm 1 mps 702 mmHg 80%
    06:00 +24°C° 0.7 mm 1 mps 702 mmHg 79%
    07:00 +24°C° 0.7 mm 1 mps 703 mmHg 78%
    08:00 +25°C° 0.7 mm 1 mps 703 mmHg 75%
    09:00 +26°C° 0.7 mm 1 mps 703 mmHg 72%
    10:00 +27°C° 0.7 mm 1 mps 703 mmHg 70%
    11:00 +27°C° 0.5 mm 1 mps 703 mmHg 68%
    12:00 +28°C° 0.5 mm 1 mps 702 mmHg 66%
    13:00 +28°C° 0.5 mm 1 mps 702 mmHg 65%
    14:00 +28°C° 0.2 mm 1 mps 701 mmHg 65%
    15:00 +28°C° 0.2 mm 1 mps 701 mmHg 66%
    16:00 +28°C° 0.2 mm 1 mps 700 mmHg 67%
    17:00 +27°C° 0.2 mm 1 mps 700 mmHg 71%
    18:00 +26°C° 0.2 mm 1 mps 701 mmHg 75%
    19:00 +25°C° 0.2 mm 1 mps 701 mmHg 79%
    20:00 +25°C° 0.2 mm 1 mps 701 mmHg 78%
    21:00 +25°C° 0.2 mm 1 mps 702 mmHg 77%
    22:00 +25°C° 0.2 mm 1 mps 702 mmHg 76%
    23:00 +24°C° 0.1 mm 1 mps 702 mmHg 76%
    Show more